Regional Weather Roundup
Issued by NWS

Home | Current Version | Previous Version | Graphics & Text | Print | Product List | Glossary On
Versions: 1 2 3 4 5 6 7 8 9 10 11 12 13 14 15 16 17 18 19 20 21 22 23 24 25 26 27 28 29 30 31 32 33 34 35 36 37 38 39 40 41 42 43 44 45 46 47 48 49 50
052
ASUS43 KMPX 051701
RWRMN
WEATHER ROUNDUP FOR MINNESOTA
NATIONAL WEATHER SERVICE TWIN CITIES/CHANHASSEN MN
1100 AM CST FRI FEB 05 2016


NOTE: "FAIR" INDICATES FEW OR NO CLOUDS BELOW 12,000 FEET WITH NO
SIGNIFICANT WEATHER AND/OR OBSTRUCTIONS TO VISIBILITY. N/A MEANS
CURRENT SKY AND/OR WEATHER CONDITIONS ARE NOT AVAILABLE.

MNZ060>063-068>070-051800-
   Twin Cities Metro

CITY           SKY/WX    TMP DP  RH WIND       PRES   REMARKS
TWIN CITIES    CLOUDY    18  12  77 SE6       30.32F WCI  10
ST PAUL        CLOUDY    13  10  88 SE8       30.35S FOG     WCI   2
CRYSTAL        CLOUDY    19  13  77 S7        30.30F WCI  10
BLAINE         CLOUDY    19  19 100 S8        30.30S WCI   9
LAKEVILLE      CLOUDY    18  14  86 S7        30.31F WCI   8
EDEN PRAIRIE   CLOUDY    16  13  88 S6        30.30F WCI   7
SOUTH ST PAUL  CLOUDY    14  11  87 SE6       30.33F WCI   5
LAKE ELMO      FAIR      16  14  93 S8        30.34S WCI   5
$$
MNZ001>005-007-008-013>017-022>024-027-028-051800-
   Northwest Minnesota

CITY           SKY/WX    TMP DP  RH WIND       PRES   REMARKS
BEMIDJI        CLOUDY    19  12  76 S9        30.12F WCI   7
HALLOCK        SUNNY     18  12  79 S6        30.15R WCI   9
ROSEAU         SUNNY     18  12  79 S3        30.13F
WARROAD        SUNNY     18  10  73 CALM      30.13F
THIEF RVR FALL PTSUNNY   19  10  68 SW7       30.15R WCI  10
CROOKSTON      SUNNY     19  16  86 W6        30.16R WCI  11
FOSSTON        SUNNY     21  16  79 S10       30.12S WCI  10
DETROIT LAKES  MIX PCPN  27  21  80 SW6       30.14R WCI  20
MOORHEAD       LGT RAIN  21  18  86 S9        30.16S WCI  11
PARK RAPIDS    CLOUDY    21  15  78 S9        30.13F WCI  11
MAHNOMEN       CLOUDY    22  17  81 S13       30.12F WCI  10
$$
MNZ006-009>011-018-025>026-051800-
   North Central Minnesota

CITY           SKY/WX    TMP DP  RH WIND       PRES   REMARKS
BAUDETTE       CLOUDY    19  11  70 S7        30.12F WCI  10
FLAG ISLAND    MOSUNNY   12   9  85 SE3       30.12F
INTL FALLS     LGT SNOW  17  12  80 SE6       30.15F WCI   9
WASKISH        PTSUNNY   23  16  74 S8        30.13F WCI  14
LONGVILLE      CLOUDY    21  12  68 S8        30.17S WCI  12
GRAND RAPIDS   CLOUDY    18  10  73 S14       30.17F WCI   4
CRANE LAKE     CLOUDY    14   9  79 S3        30.21F
ORR            CLOUDY    18   7  62 S7        30.15F WCI   8
COOK           CLOUDY    16   9  73 S8        30.19F WCI   5
WALKER         CLOUDY    19  13  76 S8        30.14F WCI   9
$$
MNZ012-019>021-037-051800-
   Northeast Minnesota

CITY           SKY/WX    TMP DP  RH WIND       PRES   REMARKS
DULUTH         CLOUDY    17   8  67 SW12      30.22F WCI   4
ELY            CLOUDY    12  10  92 S9        30.20S WCI   0
HIBBING        CLOUDY    14   8  77 VRB6      30.19F WCI   5
EVELETH        CLOUDY    14  12  92 SE5       30.21F WCI   6
DULUTH HARBOR  CLOUDY    18  10  73 S6        30.30F WCI   9
TWO HARBORS    CLOUDY    19  12  73 S7        30.24S WCI  10
SILVER BAY     CLOUDY    14   9  79 CALM      30.23F
GRAND MARAIS     N/A     20  10  65 W3        30.28F
G MARAIS ARPRT CLOUDY    14   5  67 S3        30.18F
$$
MNZ029>031-032-039>041-046>048-054>057-064-051800-
   West Central Minnesota

CITY           SKY/WX    TMP DP  RH WIND       PRES   REMARKS
FERGUS FALLS   LGT SNOW  21  18  86 S8        30.20S WCI  12
WHEATON        CLOUDY    25  19  80 SE6       30.19S WCI  18
MORRIS         CLOUDY    21  16  79 S15       30.17S WCI   8
ALEXANDRIA     CLOUDY    22  13  68 S17       30.17S WCI   8
ELBOW LAKE     CLOUDY    20  15  80 S14       30.17S WCI   7
WADENA         LGT SNOW  19  16  86 S9        30.15F WCI   9
GLENWOOD       CLOUDY    21  14  73 S13       30.19S WCI   9
APPLETON       CLOUDY    23  14  68 S8        30.19F WCI  14
BENSON         CLOUDY    21  14  73 S9G17     30.20S WCI  11
ORTONVILLE     CLOUDY    25  18  74 S6        30.17S WCI  18
MADISON        CLOUDY    28  18  64 SW10      30.19S WCI  19
WILLMAR        FAIR      23  18  80 S8        30.23S WCI  14
$$
MNZ033>034-036-042>043-049>051-058-059-051800-
   Central Minnesota

CITY           SKY/WX    TMP DP  RH WIND       PRES   REMARKS
ST CLOUD       CLOUDY    19  13  77 S12       30.25F WCI   7
SAUK CENTRE    FAIR      20  16  82 S12       30.20S WCI   9
PAYNESVILLE    CLOUDY    22  16  78 S12       30.23S WCI  11
AITKIN         CLOUDY    21  10  63 S10G21    30.19S WCI  10
PINE RIVER     CLOUDY    18  12  79 S12       30.20F WCI   5
BRAINERD       CLOUDY    19  13  77 S15       30.20F WCI   5
STAPLES        CLOUDY    19  14  79 S9        30.17F WCI   9
LONG PRAIRIE   FAIR      19  18  93 SE13      30.19S WCI   7
LITTLE FALLS   CLOUDY    19  14  79 S10       30.22F WCI   8
LITCHFIELD     CLOUDY    23  18  80 S3        30.25F
BUFFALO        CLOUDY    19  17  90 S8        30.29F WCI   9
MAPLE LAKE     CLOUDY    21  17  86 S8        30.27F WCI  11
$$
MNZ037-044-045-052-053-051800-
   East Central Minnesota

CITY           SKY/WX    TMP DP  RH WIND       PRES   REMARKS
PRINCETON      CLOUDY    19  16  86 S6        30.27S WCI  11
MORA           CLOUDY    18  12  79 S6        30.29F WCI   9
CAMBRIDGE      CLOUDY    18  10  73 S9        30.27F WCI   6
RUSH CITY      CLOUDY    14  11  88 S7        30.30F WCI   4
MOOSE LAKE     CLOUDY    18   9  68 S10       30.25S WCI   6
HINCKLEY       CLOUDY    18  10  73 S12       30.29S WCI   5
CLOQUET        CLOUDY    16   9  73 S8        30.23F WCI   5
MCGREGOR       CLOUDY    19  12  73 S13       30.21F WCI   7
$$
MNZ071>073-080-081-089-090-097-098-051800-
   Southwest Minnesota

CITY           SKY/WX    TMP DP  RH WIND       PRES   REMARKS
MONTEVIDEO     CLOUDY    23  16  74 SW10      30.22R WCI  12
GRANITE FALLS  CLOUDY    25  19  78 SE9       30.23S WCI  15
CANBY          CLOUDY    29  19  66 SW15G22   30.18R WCI  18
MARSHALL       CLOUDY    25  16  68 S24G31    30.17S WCI   9
REDWOOD FALLS  CLOUDY    18  13  80 SE15      30.24F WCI   4
OLIVIA         CLOUDY    21  18  86 S12       30.23F WCI   9
PIPESTONE        N/A     25  14  63 SW20      30.18R WCI  11
WINDOM         CLOUDY    25  14  63 S16       30.23F WCI  12
WORTHINGTON    CLOUDY    21  12  68 S21G26    30.23F WCI   6
JACKSON        CLOUDY    21  18  86 S16       30.26F WCI   7
TRACY          CLOUDY    26  17  69 S20G25    30.20S WCI  13
SLAYTON        CLOUDY    23  19  84 S20G25    30.20S WCI   8
$$
MNZ065>067-074>077-082>085-091>093-051800-
   South Central Minnesota

CITY           SKY/WX    TMP DP  RH WIND       PRES   REMARKS
MANKATO        CLOUDY    18  16  93 S8        30.30F WCI   7
NEW ULM        CLOUDY    18  14  86 S16       30.28S WCI   3
ST JAMES       CLOUDY    19  16  86 S15       30.29F WCI   5
FAIRMONT       MOSUNNY   18  10  73 S14       30.29F WCI   4
GLENCOE        CLOUDY    20  19  96 S9        30.28S WCI   9
FARIBAULT      CLOUDY    18  16  93 S9        30.32S WCI   6
OWATONNA       CLOUDY    19  16  86 S12       30.31F WCI   7
WASECA         CLOUDY    19  18  93 S8        30.33F WCI   9
ALBERT LEA     CLOUDY    19  18  93 S8        30.32F WCI   9
$$
MNZ078>079-086>088-094>096-051800-
   Southeast Minnesota

CITY           SKY/WX    TMP DP  RH WIND       PRES   REMARKS
ROCHESTER      MOSUNNY   16  12  84 S8        30.32F WCI   5
RED WING       CLOUDY    16  10  79 SE6       30.35S WCI   7
STANTON        CLOUDY    18  15  85 S6        30.32S WCI  10
DODGE CENTER   CLOUDY    19  12  73 S8        30.31F WCI   9
WINONA         CLOUDY    18  12  79 CALM      30.39F
AUSTIN         CLOUDY    14  12  92 S8        30.33F WCI   3
PRESTON        CLOUDY    17  10  76 S5        30.34F HAZE    WCI  10
$$
ABBREVIATIONS USED IN REMARKS
   TC - TEMPERATURES IN CELSIUS
  WCI - WIND CHILL INDEX
   HX - HEAT INDEX
  VSB - VISIBILITY
$$




USA.gov is the U.S. government's official web portal to all federal, state and local government web resources and services.